TimeCDT,TemperatureF,Dew PointF,Humidity,Sea Level PressureIn,VisibilityMPH,Wind Direction,Wind SpeedMPH,Gust SpeedMPH,PrecipitationIn,Events,Conditions,WindDirDegrees,DateUTC
12:12 AM,32.0,28.4,87,30.02,10.0,NW,10.4,16.1,N/A,,Overcast,310,2013-04-16 05:12:00
12:33 AM,32.0,28.4,87,30.02,10.0,NW,9.2,-,N/A,,Overcast,310,2013-04-16 05:33:00
12:53 AM,32.0,28.4,87,30.02,10.0,NW,9.2,-,N/A,,Overcast,320,2013-04-16 05:53:00
1:13 AM,32.0,28.4,87,30.04,10.0,NW,9.2,-,N/A,,Overcast,310,2013-04-16 06:13:00
1:33 AM,32.0,28.4,87,30.03,10.0,WNW,9.2,-,N/A,,Overcast,300,2013-04-16 06:33:00
1:53 AM,32.0,28.4,87,30.04,10.0,NW,8.1,-,N/A,,Overcast,310,2013-04-16 06:53:00
2:13 AM,32.0,28.4,87,30.05,10.0,WNW,8.1,-,N/A,,Overcast,290,2013-04-16 07:13:00
2:33 AM,30.2,28.4,93,30.04,10.0,NW,3.5,-,N/A,,Overcast,310,2013-04-16 07:33:00
2:53 AM,30.2,26.6,86,30.06,10.0,WNW,6.9,-,N/A,,Scattered Clouds,290,2013-04-16 07:53:00
3:13 AM,28.4,26.6,93,30.07,10.0,West,8.1,-,N/A,,Clear,280,2013-04-16 08:13:00
3:33 AM,28.4,26.6,93,30.07,10.0,West,6.9,-,N/A,,Clear,280,2013-04-16 08:33:00
3:53 AM,28.4,26.6,93,30.06,10.0,West,6.9,-,N/A,,Clear,280,2013-04-16 08:53:00
4:13 AM,26.6,26.6,100,30.08,10.0,WNW,8.1,-,N/A,,Clear,290,2013-04-16 09:13:00
4:33 AM,28.4,26.6,93,30.08,10.0,WNW,8.1,-,N/A,,Clear,290,2013-04-16 09:33:00
4:53 AM,28.4,26.6,93,30.08,10.0,WNW,9.2,-,N/A,,Clear,300,2013-04-16 09:53:00
5:13 AM,28.4,26.6,93,30.09,10.0,WNW,8.1,-,N/A,,Clear,300,2013-04-16 10:13:00
5:33 AM,26.6,24.8,93,30.11,10.0,WNW,6.9,-,N/A,,Clear,290,2013-04-16 10:33:00
5:53 AM,26.6,24.8,93,30.12,10.0,WNW,5.8,-,N/A,,Clear,290,2013-04-16 10:53:00
6:13 AM,26.6,24.8,93,30.11,10.0,WNW,6.9,-,N/A,,Clear,300,2013-04-16 11:13:00
6:33 AM,26.6,24.8,93,30.11,10.0,WNW,6.9,-,N/A,,Clear,300,2013-04-16 11:33:00
6:53 AM,26.6,24.8,93,30.12,10.0,NW,6.9,-,N/A,,Clear,310,2013-04-16 11:53:00
7:13 AM,26.6,24.8,93,30.14,10.0,NW,8.1,-,N/A,,Clear,310,2013-04-16 12:13:00
7:33 AM,26.6,24.8,93,30.15,10.0,NNW,8.1,-,N/A,,Clear,330,2013-04-16 12:33:00
7:53 AM,26.6,24.8,93,30.15,10.0,NW,8.1,-,N/A,,Clear,320,2013-04-16 12:53:00
8:13 AM,28.4,24.8,86,30.16,10.0,NNW,4.6,-,N/A,,Scattered Clouds,330,2013-04-16 13:13:00
8:33 AM,28.4,24.8,86,30.16,7.0,NNW,10.4,-,N/A,,Clear,340,2013-04-16 13:33:00
8:54 AM,28.4,24.8,86,30.18,10.0,NNW,9.2,-,N/A,,Clear,340,2013-04-16 13:54:00
9:13 AM,30.2,24.8,80,30.18,10.0,NNW,10.4,-,N/A,,Clear,330,2013-04-16 14:13:00
9:33 AM,30.2,24.8,80,30.19,10.0,NNW,10.4,-,N/A,,Clear,330,2013-04-16 14:33:00
9:53 AM,32.0,24.8,75,30.20,10.0,NNW,10.4,-,N/A,,Clear,340,2013-04-16 14:53:00
10:13 AM,32.0,26.6,80,30.20,10.0,NNW,12.7,16.1,N/A,,Clear,340,2013-04-16 15:13:00
10:33 AM,32.0,26.6,80,30.20,10.0,NNW,10.4,-,N/A,,Clear,340,2013-04-16 15:33:00
10:53 AM,33.8,26.6,75,30.21,10.0,North,5.8,-,N/A,,Clear,360,2013-04-16 15:53:00
11:13 AM,33.8,26.6,75,30.21,10.0,North,6.9,-,N/A,,Clear,350,2013-04-16 16:13:00
11:33 AM,35.6,26.6,70,30.22,10.0,NNW,9.2,-,N/A,,Clear,340,2013-04-16 16:33:00
11:53 AM,33.8,26.6,75,30.22,10.0,North,3.5,-,N/A,,Clear,360,2013-04-16 16:53:00
12:13 PM,35.6,26.6,70,30.24,10.0,Calm,Calm,-,N/A,,Scattered Clouds,0,2013-04-16 17:13:00
12:33 PM,35.6,26.6,70,30.23,10.0,NNE,4.6,-,N/A,,Scattered Clouds,20,2013-04-16 17:33:00
12:53 PM,35.6,26.6,70,30.23,10.0,NE,5.8,-,N/A,,Scattered Clouds,40,2013-04-16 17:53:00
1:14 PM,35.6,26.6,70,30.23,10.0,North,5.8,-,N/A,,Clear,10,2013-04-16 18:14:00
1:33 PM,35.6,24.8,65,30.23,10.0,NNE,4.6,-,N/A,,Clear,20,2013-04-16 18:33:00
1:53 PM,35.6,26.6,70,30.23,10.0,NE,4.6,-,N/A,,Clear,40,2013-04-16 18:53:00
2:13 PM,35.6,24.8,65,30.23,10.0,North,3.5,-,N/A,,Clear,10,2013-04-16 19:13:00
2:33 PM,35.6,26.6,70,30.23,10.0,NNE,3.5,-,N/A,,Clear,30,2013-04-16 19:33:00
2:53 PM,35.6,24.8,65,30.23,10.0,NNE,5.8,-,N/A,,Clear,20,2013-04-16 19:53:00
3:13 PM,35.6,26.6,70,30.23,10.0,North,3.5,-,N/A,,Clear,360,2013-04-16 20:13:00
3:33 PM,35.6,24.8,65,30.23,10.0,NE,5.8,-,N/A,,Clear,40,2013-04-16 20:33:00
3:53 PM,37.4,24.8,60,30.23,10.0,NNE,4.6,-,N/A,,Scattered Clouds,30,2013-04-16 20:53:00
4:13 PM,37.4,24.8,60,30.24,10.0,North,3.5,-,N/A,,Scattered Clouds,10,2013-04-16 21:13:00
4:33 PM,37.4,24.8,60,30.24,10.0,NNE,3.5,-,N/A,,Scattered Clouds,30,2013-04-16 21:33:00
4:53 PM,35.6,26.6,70,30.23,10.0,NE,4.6,-,N/A,,Scattered Clouds,40,2013-04-16 21:53:00
5:13 PM,35.6,26.6,70,30.22,10.0,NE,4.6,-,N/A,,Mostly Cloudy,40,2013-04-16 22:13:00
5:33 PM,35.6,26.6,70,30.22,10.0,NE,5.8,-,N/A,,Mostly Cloudy,40,2013-04-16 22:33:00
5:53 PM,35.6,26.6,70,30.22,10.0,NE,6.9,-,N/A,,Mostly Cloudy,40,2013-04-16 22:53:00
6:13 PM,33.8,26.6,75,30.23,10.0,ENE,5.8,-,N/A,,Overcast,60,2013-04-16 23:13:00
6:33 PM,33.8,26.6,75,30.24,10.0,NE,8.1,-,N/A,,Overcast,50,2013-04-16 23:33:00
6:53 PM,33.8,26.6,75,30.23,10.0,ENE,8.1,-,N/A,,Overcast,70,2013-04-16 23:53:00
7:13 PM,33.8,26.6,75,30.23,10.0,ENE,6.9,-,N/A,,Scattered Clouds,60,2013-04-17 00:13:00
7:33 PM,32.0,26.6,80,30.24,10.0,NE,8.1,-,N/A,,Overcast,50,2013-04-17 00:33:00
7:53 PM,32.0,26.6,80,30.24,10.0,NE,8.1,-,N/A,,Overcast,40,2013-04-17 00:53:00
8:13 PM,32.0,26.6,80,30.25,10.0,ENE,6.9,-,N/A,,Scattered Clouds,60,2013-04-17 01:13:00
8:33 PM,32.0,26.6,80,30.25,10.0,NE,8.1,-,N/A,,Mostly Cloudy,50,2013-04-17 01:33:00
8:53 PM,32.0,26.6,80,30.26,10.0,NE,6.9,-,N/A,,Overcast,50,2013-04-17 01:53:00
9:13 PM,32.0,26.6,80,30.26,10.0,ENE,6.9,-,N/A,,Overcast,60,2013-04-17 02:13:00
9:33 PM,32.0,26.6,80,30.25,10.0,ENE,10.4,-,N/A,,Overcast,70,2013-04-17 02:33:00
9:53 PM,32.0,28.4,87,30.26,10.0,ENE,5.8,-,N/A,,Overcast,60,2013-04-17 02:53:00
10:13 PM,32.0,28.4,87,30.26,10.0,ENE,9.2,-,N/A,,Overcast,60,2013-04-17 03:13:00
10:33 PM,32.0,28.4,87,30.26,10.0,ENE,5.8,-,N/A,,Overcast,70,2013-04-17 03:33:00
10:53 PM,32.0,28.4,87,30.26,10.0,ENE,8.1,-,N/A,,Overcast,60,2013-04-17 03:53:00
11:13 PM,32.0,28.4,87,30.26,10.0,ENE,6.9,-,N/A,,Overcast,70,2013-04-17 04:13:00
11:33 PM,32.0,28.4,87,30.26,10.0,ENE,6.9,-,N/A,,Overcast,70,2013-04-17 04:33:00
11:53 PM,32.0,28.4,87,30.26,10.0,NE,9.2,-,N/A,,Overcast,50,2013-04-17 04:53:00